GW3595 Weather Reports


time (UTC)temp
F
wind
direction
speed
knots
gust
knots
rain 1hr
in
rain 24hr
in
rain mn
in
humidity
%
barometer
mb
20260507202204 51 172 0.9 3.5 0.00 0.08 0.08 92 1015.6
20260507201204 51 128 0.9 0.9 0.00 0.08 0.08 92 1015.4
20260507200704 51 259 0.0 1.7 0.00 0.08 0.08 92 1015.2
20260507200204 51 259 0.0 1.7 0.00 0.08 0.08 91 1015.1
20260507195704 51 259 0.9 1.7 0.00 0.08 0.08 91 1015.1
20260507195205 51 215 0.9 1.7 0.00 0.08 0.08 90 1015.0
20260507194205 52 42 0.0 2.6 0.00 0.08 0.08 90 1014.8
20260507193704 52 42 0.9 2.6 0.00 0.08 0.08 89 1014.6
20260507193205 52 42 0.9 5.2 0.00 0.08 0.08 89 1014.5
20260507192704 52 63 0.9 5.2 0.00 0.08 0.08 88 1014.4
20260507191705 53 74 1.7 5.2 0.00 0.08 0.08 87 1014.1
20260507191205 53 103 2.6 5.2 0.00 0.08 0.08 87 1013.9
20260507190705 53 85 2.6 6.1 0.00 0.08 0.08 87 1013.9
20260507190204 53 82 2.6 7.0 0.00 0.08 0.08 88 1013.7
20260507185705 53 67 1.7 7.0 0.01 0.08 0.08 88 1013.7
20260507185204 53 152 1.7 7.0 0.01 0.08 0.08 88 1013.6
20260507184704 52 128 1.7 4.3 0.01 0.08 0.08 89 1013.6
20260507184205 53 91 1.7 5.2 0.02 0.08 0.08 89 1013.5
20260507183704 52 175 1.7 5.2 0.02 0.08 0.08 88 1013.5
20260507183205 53 79 2.6 5.2 0.02 0.08 0.08 88 1013.4
20260507182704 53 55 3.5 7.0 0.04 0.08 0.08 88 1013.4
20260507182205 53 52 3.5 7.0 0.06 0.08 0.08 88 1013.3
20260507181720 53 56 3.5 7.0 0.06 0.08 0.08 88 1013.3
20260507181228 53 111 3.5 7.8 0.07 0.08 0.08 87 1013.4
20260507180704 53 79 2.6 7.8 0.07 0.08 0.08 87 1013.5
20260507180205 53 325 1.7 5.2 0.07 0.08 0.08 87 1013.6
20260507175705 53 315 1.7 7.8 0.06 0.07 0.07 87 1013.7
20260507174705 53 30 3.5 8.7 0.06 0.07 0.07 86 1013.6
20260507173704 54 80 5.2 9.6 0.06 0.06 0.06 84 1013.0
20260507173204 54 61 4.3 9.6 0.05 0.05 0.05 83 1012.7
20260507172205 55 40 4.3 14.8 0.02 0.02 0.02 80 1013.0
20260507171704 56 0 7.0 14.8 0.01 0.01 0.01 77 1012.7
20260507171205 56 0 7.8 14.8 0.01 0.01 0.01 74 1012.5
20260507165705 57 0 6.1 13.9 0.01 0.01 0.01 74 1012.5
20260507165205 57 0 5.2 13.9 0.01 0.01 0.01 76 1012.2
20260507164705 57 0 6.1 13.9 0.01 0.01 0.01 76 1012.0
20260507164205 57 0 5.2 9.6 0.00 0.00 0.00 77 1012.0
20260507163705 57 0 3.5 13.0 0.00 0.00 0.00 78 1012.2
20260507163204 57 0 4.3 13.0 0.00 0.00 0.00 77 1012.2
20260507162204 57 0 4.3 11.3 0.00 0.00 0.00 77 1011.9
20260507161704 57 0 3.5 11.3 0.00 0.00 0.00 77 1011.8
20260507161205 57 0 4.3 11.3 0.00 0.00 0.00 77 1011.7
20260507160704 57 0 4.3 12.2 0.00 0.00 0.00 77 1011.7
20260507160205 58 0 5.2 12.2 0.00 0.00 0.00 77 1011.5
20260507155205 58 0 3.5 7.8 0.00 0.00 0.00 78 1011.4
20260507154704 58 0 3.5 11.3 0.00 0.00 0.00 78 1011.3
20260507154205 58 0 3.5 11.3 0.00 0.00 0.00 77 1011.0
20260507153705 58 0 3.5 11.3 0.00 0.00 0.00 74 1010.9
20260507153205 58 0 3.5 10.4 0.00 0.00 0.00 74 1010.8
20260507152705 59 0 2.6 8.7 0.00 0.00 0.00 73 1010.7
20260507151705 60 0 3.5 8.7 0.00 0.00 0.00 70 1010.8
20260507151204 60 168 4.3 8.7 0.00 0.00 0.00 69 1010.6
20260507150704 61 168 3.5 8.7 0.00 0.00 0.00 67 1010.6
20260507150205 62 221 3.5 14.8 0.00 0.00 0.00 64 1010.4
20260507145704 64 0 3.5 14.8 0.00 0.00 0.00 59 1010.2
20260507145205 65 134 3.5 10.4 0.00 0.00 0.00 55 1010.0
20260507144704 67 151 3.5 10.4 0.00 0.00 0.00 52 1009.6
20260507144205 71 319 1.7 6.1 0.00 0.00 0.00 48 1009.8
20260507143704 71 182 1.7 6.1 0.00 0.00 0.00 46 1009.5
20260507143205 70 294 2.6 8.7 0.00 0.00 0.00 46 1009.3
20260507142704 69 280 2.6 8.7 0.00 0.00 0.00 47 1009.2
20260507142204 70 221 2.6 8.7 0.00 0.00 0.00 46 1009.1
20260507141705 69 253 3.5 8.7 0.00 0.00 0.00 47 1009.2
20260507141204 69 258 4.3 8.7 0.00 0.00 0.00 47 1009.2
20260507140704 69 263 4.3 8.7 0.00 0.00 0.00 46 1009.3
20260507140204 69 213 3.5 7.0 0.00 0.00 0.00 46 1009.3
20260507135704 70 240 3.5 7.0 0.00 0.00 0.00 45 1009.2
20260507135204 70 227 3.5 7.8 0.00 0.00 0.00 44 1009.2
20260507134704 70 186 3.5 13.9 0.00 0.00 0.00 44 1009.3
20260507134205 70 237 4.3 13.9 0.00 0.00 0.00 45 1009.3
20260507133704 72 238 4.3 13.9 0.00 0.00 0.00 43 1009.3
20260507133205 71 265 4.3 12.2 0.00 0.00 0.00 45 1009.4
20260507132704 71 243 4.3 12.2 0.00 0.00 0.00 44 1009.4
20260507132205 71 249 4.3 10.4 0.00 0.00 0.00 45 1009.5
20260507131233 70 244 3.5 8.7 0.00 0.00 0.00 46 1009.8
20260507130722 69 205 3.5 8.7 0.00 0.00 0.00 48 1009.7
20260507125705 69 184 3.5 12.2 0.00 0.00 0.00 48 1009.8
20260507125204 69 195 3.5 12.2 0.00 0.00 0.00 47 1009.8
20260507124705 70 150 2.6 7.8 0.00 0.00 0.00 46 1009.9
20260507124204 70 259 3.5 7.8 0.00 0.00 0.00 45 1009.7
20260507123704 71 292 3.5 6.1 0.00 0.00 0.00 43 1009.7
20260507122705 70 242 2.6 6.1 0.00 0.00 0.00 46 1009.8
20260507122205 69 189 2.6 8.7 0.00 0.00 0.00 44 1009.8
20260507121205 70 211 3.5 8.7 0.00 0.00 0.00 43 1009.9
20260507120705 70 273 2.6 9.6 0.00 0.00 0.00 44 1009.9
20260507120205 70 234 3.5 9.6 0.00 0.00 0.00 41 1010.0
20260507115726 70 263 3.5 9.6 0.00 0.00 0.00 42 1010.1
20260507115204 71 244 3.5 7.8 0.00 0.00 0.00 43 1010.1
20260507114204 71 279 3.5 7.8 0.00 0.00 0.00 44 1010.1
20260507113704 71 209 2.6 7.8 0.00 0.00 0.00 44 1010.2
20260507113205 71 265 3.5 7.8 0.00 0.00 0.00 44 1010.2
20260507112704 71 166 3.5 7.8 0.00 0.00 0.00 44 1010.2
20260507112205 71 200 3.5 7.8 0.00 0.00 0.00 45 1010.4
20260507111704 71 0 2.6 7.0 0.00 0.00 0.00 47 1010.5
20260507111205 71 218 2.6 7.0 0.00 0.00 0.00 48 1010.5
20260507110205 71 217 2.6 9.6 0.00 0.00 0.00 44 1010.6
20260507105705 71 207 4.3 8.7 0.00 0.00 0.00 45 1010.6
20260507105204 70 177 2.6 6.1 0.00 0.00 0.00 46 1010.7
20260507104704 71 200 2.6 6.1 0.00 0.00 0.00 45 1010.8
20260507103704 70 0 2.6 8.7 0.00 0.00 0.00 48 1010.9
20260507103205 68 265 3.5 8.7 0.00 0.00 0.00 51 1010.9
20260507102704 70 208 4.3 9.6 0.00 0.00 0.00 48 1011.0
20260507102205 70 228 3.5 9.6 0.00 0.00 0.00 52 1010.9
20260507101705 70 175 3.5 9.6 0.00 0.00 0.00 50 1011.0
20260507100704 68 192 2.6 7.0 0.00 0.00 0.00 52 1011.1
20260507095704 68 265 3.5 6.1 0.00 0.00 0.00 53 1011.4
20260507095205 68 208 3.5 7.8 0.00 0.00 0.00 52 1011.3
20260507094704 67 0 3.5 7.8 0.00 0.00 0.00 55 1011.5
20260507094204 67 221 2.6 7.8 0.00 0.00 0.00 53 1011.4
20260507093705 69 232 2.6 7.8 0.00 0.00 0.00 53 1011.5
20260507093204 69 257 2.6 7.0 0.00 0.00 0.00 53 1011.5
20260507092705 67 277 3.5 7.0 0.00 0.00 0.00 55 1011.4
20260507092204 67 261 3.5 7.0 0.00 0.00 0.00 55 1011.4
20260507091705 67 227 3.5 7.0 0.00 0.00 0.00 55 1011.4
20260507091204 67 287 3.5 7.0 0.00 0.00 0.00 56 1011.3
20260507090704 66 261 3.5 6.1 0.00 0.00 0.00 55 1011.4
20260507090205 66 210 2.6 5.2 0.00 0.00 0.00 55 1011.3
20260507085704 66 197 2.6 5.2 0.00 0.00 0.00 56 1011.3
20260507084704 66 297 2.6 5.2 0.00 0.00 0.00 58 1011.3
20260507084205 65 282 1.7 5.2 0.00 0.00 0.00 58 1011.2
20260507083704 65 266 1.7 6.1 0.00 0.00 0.00 59 1011.3
20260507082205 65 282 3.5 6.1 0.00 0.00 0.00 62 1011.2
20260507081705 65 255 3.5 6.1 0.00 0.00 0.00 62 1011.2
20260507081205 65 229 2.6 5.2 0.00 0.00 0.00 63 1011.1
20260507080721 64 294 2.6 5.2 0.00 0.00 0.00 64 1011.1
20260507075704 65 257 2.6 5.2 0.00 0.00 0.00 63 1011.1
20260507075204 64 246 1.7 2.6 0.00 0.00 0.00 67 1011.1
20260507074704 63 265 0.9 2.6 0.00 0.00 0.00 66 1011.1
20260507074205 62 202 0.9 3.5 0.00 0.00 0.00 69 1011.1
20260507072205 62 144 2.6 6.1 0.00 0.00 0.00 71 1010.9
20260507071705 61 138 3.5 5.2 0.00 0.00 0.00 72 1010.8
20260507071204 61 146 2.6 5.2 0.00 0.00 0.00 73 1010.8
20260507070704 61 126 2.6 5.2 0.00 0.00 0.00 73 1010.8
20260507070204 61 115 1.7 4.3 0.00 0.00 0.00 74 1010.8
20260507065705 60 119 1.7 3.5 0.00 0.00 0.00 75 1010.9
20260507065205 59 115 1.7 3.5 0.00 0.00 0.00 76 1010.9
20260507063704 57 0 1.7 2.6 0.00 0.00 0.00 80 1010.9
20260507063205 57 0 0.9 2.6 0.00 0.00 0.00 81 1010.9
20260507062704 56 0 0.9 2.6 0.00 0.00 0.00 81 1011.0
20260507062205 56 0 0.9 3.5 0.00 0.00 0.00 82 1010.9
20260507061704 56 0 0.9 3.5 0.00 0.00 0.00 82 1010.8
20260507061205 56 0 0.9 3.5 0.00 0.00 0.00 83 1010.8
20260507060705 56 0 1.7 3.5 0.00 0.00 0.00 83 1010.7
20260507060204 55 0 1.7 3.5 0.00 0.00 0.00 83 1010.7
20260507055705 55 0 1.7 2.6 0.00 0.00 0.00 84 1010.7
20260507055205 55 0 0.9 2.6 0.00 0.00 0.00 85 1010.7
20260507054205 54 0 0.9 2.6 0.00 0.00 0.00 85 1010.6
20260507053704 54 0 1.7 2.6 0.00 0.00 0.00 85 1010.6
20260507053205 54 0 1.7 2.6 0.00 0.00 0.00 86 1010.6
20260507052704 54 0 0.9 2.6 0.00 0.00 0.00 85 1010.5
20260507052205 54 0 0.9 2.6 0.00 0.00 0.00 85 1010.5
20260507051704 54 0 0.9 2.6 0.00 0.00 0.00 85 1010.2
20260507051205 54 0 0.9 2.6 0.00 0.00 0.00 84 1010.2
20260507050204 53 0 1.7 3.5 0.00 0.00 0.00 84 1010.2
20260507045705 53 0 1.7 3.5 0.00 0.00 0.00 85 1010.1
20260507045205 53 0 1.7 2.6 0.00 0.00 0.00 85 1010.1
20260507044704 53 0 1.7 2.6 0.00 0.00 0.00 86 1010.0
20260507044205 53 0 1.7 2.6 0.00 0.00 0.00 86 1010.0
20260507043704 53 0 0.9 1.7 0.00 0.00 0.00 87 1010.0
20260507043205 53 0 0.0 1.7 0.00 0.00 0.00 87 1010.0
20260507042705 53 0 0.0 3.5 0.00 0.00 0.00 87 1010.0
20260507041705 53 0 1.7 3.5 0.00 0.00 0.00 87 1009.9
20260507041204 52 0 1.7 3.5 0.00 0.00 0.00 88 1009.9
20260507040704 52 0 0.9 2.6 0.00 0.00 0.00 89 1009.8
20260507035705 52 0 0.0 3.5 0.00 0.00 0.00 89 1009.8
20260507035205 52 0 0.9 3.5 0.00 0.00 0.00 88 1009.7
20260507034704 52 0 1.7 3.5 0.00 0.00 0.00 88 1009.7
20260507034205 52 0 0.9 2.6 0.00 0.00 0.00 89 1009.7
20260507032205 52 0 0.9 1.7 0.00 0.00 0.00 89 1009.4
20260507031705 52 0 0.9 1.7 0.00 0.00 0.00 89 1009.4
20260507030705 52 0 0.0 1.7 0.00 0.00 0.00 89 1009.4
20260507030205 52 0 0.0 1.7 0.00 0.00 0.00 89 1009.4
20260507025705 52 0 0.9 1.7 0.00 0.00 0.00 88 1009.4
20260507025204 52 0 0.0 0.9 0.00 0.00 0.00 88 1009.4
20260507024204 52 0 0.0 0.9 0.00 0.00 0.00 88 1009.3
20260507023204 53 0 0.0 1.7 0.00 0.00 0.00 88 1009.2
20260507022705 53 0 0.0 1.7 0.00 0.00 0.00 88 1009.3
20260507022205 53 0 0.0 1.7 0.00 0.00 0.00 88 1009.4
20260507021704 53 0 0.0 1.7 0.00 0.00 0.00 88 1009.3
20260507021205 53 0 0.0 1.7 0.00 0.00 0.00 88 1009.3
20260507020722 53 0 0.0 0.9 0.00 0.00 0.00 88 1009.3
20260507020205 53 0 0.0 0.9 0.00 0.00 0.00 88 1009.2
20260507015204 53 0 0.0 1.7 0.00 0.00 0.00 88 1009.3
20260507014705 53 0 0.0 1.7 0.00 0.00 0.00 88 1009.3
20260507014204 53 0 0.9 1.7 0.00 0.00 0.00 88 1009.3
20260507013705 53 0 0.9 2.6 0.00 0.00 0.00 88 1009.3
20260507013204 53 0 0.9 2.6 0.00 0.00 0.00 88 1009.2
20260507012705 53 0 0.9 2.6 0.00 0.00 0.00 88 1009.2
20260507012205 53 0 0.0 1.7 0.00 0.00 0.00 88 1009.2
20260507011212 53 0 0.0 2.6 0.00 0.00 0.00 87 1009.1
20260507010704 53 0 0.0 2.6 0.00 0.00 0.00 87 1009.1
20260507010204 53 0 0.9 2.6 0.00 0.00 0.00 87 1009.1
20260507005705 53 0 0.9 1.7 0.00 0.00 0.00 87 1009.0
20260507005204 53 0 0.0 1.7 0.00 0.00 0.00 87 1009.0
20260507004705 54 0 0.0 1.7 0.00 0.00 0.00 86 1009.0
20260507004204 54 0 0.9 2.6 0.00 0.00 0.00 86 1008.9
20260507003705 54 0 0.9 2.6 0.00 0.00 0.00 86 1008.9
20260507003205 54 0 0.9 2.6 0.00 0.00 0.00 86 1008.9
20260507002704 54 0 0.9 2.6 0.00 0.00 0.00 87 1009.0
20260507002205 54 0 0.0 0.9 0.00 0.00 0.00 87 1008.9
20260507001704 54 0 0.0 0.9 0.00 0.00 0.00 87 1008.8
20260507001205 54 0 0.0 0.9 0.00 0.00 0.00 87 1008.9
20260507000705 54 0 0.0 0.9 0.00 0.00 0.00 87 1008.9
20260507000205 54 0 0.0 1.7 0.00 0.00 0.00 86 1008.9
20260506235705 54 0 0.0 1.7 0.00 0.00 0.00 86 1008.9
20260506235204 54 0 0.9 1.7 0.00 0.00 0.00 85 1008.9
20260506234704 55 0 0.0 1.7 0.00 0.00 0.00 85 1008.8
20260506233704 55 126 0.9 1.7 0.00 0.00 0.00 84 1008.8
20260506233204 56 111 0.9 1.7 0.00 0.00 0.00 84 1008.9
20260506232205 56 244 0.9 4.3 0.00 0.00 0.00 83 1008.7
20260506231704 56 234 1.7 4.3 0.00 0.00 0.00 83 1008.8
20260506231220 56 211 2.6 4.3 0.00 0.00 0.00 83 1008.6
20260506230704 56 202 2.6 3.5 0.00 0.00 0.00 83 1008.8
20260506230205 56 209 1.7 3.5 0.00 0.00 0.00 83 1008.9
20260506225704 56 189 0.9 3.5 0.00 0.00 0.00 83 1008.8
20260506225205 56 150 0.9 3.5 0.00 0.00 0.00 84 1008.8
20260506224705 56 153 0.9 3.5 0.00 0.00 0.00 84 1008.8
20260506224205 56 191 0.9 0.9 0.00 0.00 0.00 84 1008.7
20260506223705 56 116 0.0 1.7 0.00 0.00 0.00 84 1008.6
20260506223204 56 114 0.0 1.7 0.00 0.00 0.00 83 1008.6
20260506222705 56 117 0.9 0.9 0.00 0.00 0.00 83 1008.6
20260506221705 56 112 0.0 0.9 0.00 0.00 0.00 83 1008.7
20260506221205 56 109 0.0 0.9 0.00 0.00 0.00 83 1008.7
20260506220705 56 110 0.0 0.0 0.00 0.00 0.00 83 1008.8
20260506220205 56 108 0.0 0.9 0.00 0.00 0.00 84 1008.8
20260506215704 56 111 0.0 0.9 0.00 0.00 0.00 83 1008.8
20260506215205 56 110 0.0 0.9 0.00 0.00 0.00 84 1008.7
20260506214704 56 112 0.0 0.9 0.00 0.00 0.00 84 1008.8
20260506214205 55 116 0.0 0.9 0.00 0.00 0.00 84 1008.8
20260506213704 56 115 0.0 1.7 0.00 0.00 0.00 84 1008.8
20260506213205 56 119 0.9 1.7 0.00 0.00 0.00 84 1008.7
20260506212704 56 119 0.9 0.9 0.00 0.00 0.00 84 1008.6
20260506212205 56 106 0.0 1.7 0.00 0.00 0.00 84 1008.6
20260506211705 56 107 0.0 1.7 0.00 0.00 0.00 84 1008.6
20260506211205 55 109 0.0 1.7 0.00 0.00 0.00 84 1008.5
20260506210204 56 118 0.0 0.9 0.00 0.00 0.00 83 1008.4
20260506205705 56 119 0.0 3.5 0.00 0.00 0.00 82 1008.4
20260506205204 56 116 0.9 3.5 0.00 0.00 0.00 82 1008.5
20260506204704 57 117 0.9 3.5 0.00 0.00 0.00 81 1008.4
20260506204205 57 116 0.9 2.6 0.00 0.00 0.00 80 1008.5
20260506203704 58 110 0.0 2.6 0.00 0.00 0.00 79 1008.5
20260506203204 58 207 0.9 2.6 0.00 0.00 0.00 78 1008.5